Time,TemperatureF,DewpointF,PressureIn,WindDirection,WindDirectionDegrees,WindSpeedMPH,WindSpeedGustMPH,Humidity,HourlyPrecipIn,Conditions,Clouds,dailyrainin,SoftwareType,DateUTC
2013-03-17 00:00:00,58.7,55.5,30.03,South,189,3.0,3.0,89,0.00,,,0.00,WeatherTracker,2013-03-17 05:00:00,
2013-03-17 00:10:00,58.6,55.4,30.02,SSW,199,3.0,4.0,89,0.00,,,0.00,WeatherTracker,2013-03-17 05:10:00,
2013-03-17 00:15:00,58.5,55.6,30.02,South,188,2.0,5.0,90,0.00,,,0.00,WeatherTracker,2013-03-17 05:15:00,
2013-03-17 00:20:00,58.5,55.6,30.02,South,188,2.0,6.0,90,0.00,,,0.00,WeatherTracker,2013-03-17 05:20:00,
2013-03-17 00:30:00,58.4,55.5,30.02,South,188,3.0,3.0,90,0.00,,,0.00,WeatherTracker,2013-03-17 05:30:00,
2013-03-17 00:35:00,58.4,55.5,30.02,South,188,2.0,3.0,90,0.00,,,0.00,WeatherTracker,2013-03-17 05:35:00,
2013-03-17 00:40:00,58.3,55.7,30.02,South,188,0.0,3.0,91,0.00,,,0.00,WeatherTracker,2013-03-17 05:40:00,
2013-03-17 00:45:00,58.3,55.7,30.02,South,188,0.0,3.0,91,0.00,,,0.00,WeatherTracker,2013-03-17 05:45:00,
2013-03-17 00:55:00,58.2,55.6,30.01,South,189,1.0,4.0,91,0.00,,,0.00,WeatherTracker,2013-03-17 05:55:00,
2013-03-17 01:00:00,58.1,55.8,30.01,SSE,165,0.0,4.0,92,0.00,,,0.00,WeatherTracker,2013-03-17 06:00:00,
2013-03-17 01:10:00,58.2,55.9,30.02,South,184,0.0,5.0,92,0.00,,,0.00,WeatherTracker,2013-03-17 06:10:00,
2013-03-17 01:20:00,58.2,55.9,30.02,South,178,1.0,5.0,92,0.00,,,0.00,WeatherTracker,2013-03-17 06:20:00,
2013-03-17 01:25:00,58.1,55.8,30.02,South,178,0.0,5.0,92,0.00,,,0.00,WeatherTracker,2013-03-17 06:25:00,
2013-03-17 01:35:00,57.9,55.9,30.01,South,178,0.0,4.0,93,0.00,,,0.00,WeatherTracker,2013-03-17 06:35:00,
2013-03-17 01:45:00,57.7,55.7,30.01,South,178,0.0,5.0,93,0.00,,,0.00,WeatherTracker,2013-03-17 06:45:00,
2013-03-17 01:50:00,57.6,55.6,30.01,South,178,0.0,5.0,93,0.00,,,0.00,WeatherTracker,2013-03-17 06:50:00,
2013-03-17 02:00:00,57.4,55.4,30.00,SSE,157,0.0,5.0,93,0.00,,,0.00,WeatherTracker,2013-03-17 07:00:00,
2013-03-17 02:05:00,57.3,55.3,30.00,SSE,157,0.0,4.0,93,0.00,,,0.00,WeatherTracker,2013-03-17 07:05:00,
2013-03-17 02:10:00,57.2,55.2,30.00,SSE,166,4.0,5.0,93,0.00,,,0.00,WeatherTracker,2013-03-17 07:10:00,
2013-03-17 02:20:00,57.1,55.1,30.00,SSE,166,2.0,5.0,93,0.00,,,0.00,WeatherTracker,2013-03-17 07:20:00,
2013-03-17 02:25:00,57.1,55.4,30.00,SSE,167,0.0,5.0,94,0.00,,,0.00,WeatherTracker,2013-03-17 07:25:00,
2013-03-17 02:30:00,56.9,55.2,30.00,SSE,167,0.0,5.0,94,0.00,,,0.00,WeatherTracker,2013-03-17 07:30:00,
2013-03-17 02:40:00,56.8,55.1,30.00,South,179,0.0,5.0,94,0.00,,,0.00,WeatherTracker,2013-03-17 07:40:00,
2013-03-17 02:50:00,56.9,55.2,30.00,South,184,0.0,3.0,94,0.00,,,0.00,WeatherTracker,2013-03-17 07:50:00,
2013-03-17 02:55:00,57.0,55.6,29.99,SSE,162,1.0,5.0,95,0.00,,,0.00,WeatherTracker,2013-03-17 07:55:00,
2013-03-17 03:05:00,57.2,55.8,29.99,SSE,167,1.0,4.0,95,0.00,,,0.00,WeatherTracker,2013-03-17 08:05:00,
2013-03-17 03:10:00,57.3,55.9,29.99,SSE,167,4.0,4.0,95,0.00,,,0.00,WeatherTracker,2013-03-17 08:10:00,
2013-03-17 03:15:00,57.5,56.1,29.98,SSE,167,0.0,4.0,95,0.00,,,0.00,WeatherTracker,2013-03-17 08:15:00,
2013-03-17 03:20:00,57.6,56.2,29.98,SSE,167,0.0,4.0,95,0.00,,,0.00,WeatherTracker,2013-03-17 08:20:00,
2013-03-17 03:25:00,57.6,56.2,29.98,SSE,167,0.0,4.0,95,0.00,,,0.00,WeatherTracker,2013-03-17 08:25:00,
2013-03-17 03:35:00,57.6,56.2,29.98,South,172,5.0,5.0,95,0.00,,,0.00,WeatherTracker,2013-03-17 08:35:00,
2013-03-17 03:40:00,57.7,56.3,29.98,SSE,167,0.0,6.0,95,0.00,,,0.00,WeatherTracker,2013-03-17 08:40:00,
2013-03-17 03:45:00,57.8,56.7,29.98,SSE,167,4.0,6.0,96,0.00,,,0.00,WeatherTracker,2013-03-17 08:45:00,
2013-03-17 03:55:00,58.0,56.9,29.98,South,179,1.0,6.0,96,0.00,,,0.00,WeatherTracker,2013-03-17 08:55:00,
2013-03-17 04:00:00,58.1,57.0,29.98,South,171,1.0,5.0,96,0.00,,,0.00,WeatherTracker,2013-03-17 09:00:00,
2013-03-17 04:05:00,58.1,57.0,29.98,South,171,1.0,5.0,96,0.00,,,0.00,WeatherTracker,2013-03-17 09:05:00,
2013-03-17 04:10:00,58.0,56.9,29.98,South,171,1.0,5.0,96,0.00,,,0.00,WeatherTracker,2013-03-17 09:10:00,
2013-03-17 04:20:00,58.1,57.0,29.98,South,179,0.0,5.0,96,0.00,,,0.00,WeatherTracker,2013-03-17 09:20:00,
2013-03-17 04:25:00,58.1,57.0,29.98,SSW,195,1.0,5.0,96,0.00,,,0.00,WeatherTracker,2013-03-17 09:25:00,
2013-03-17 04:35:00,58.1,57.0,29.98,SSE,162,1.0,5.0,96,0.00,,,0.00,WeatherTracker,2013-03-17 09:35:00,
2013-03-17 04:40:00,58.2,57.1,29.98,SSW,196,1.0,5.0,96,0.00,,,0.00,WeatherTracker,2013-03-17 09:40:00,
2013-03-17 04:50:00,58.2,57.1,29.99,SSE,157,1.0,6.0,96,0.00,,,0.00,WeatherTracker,2013-03-17 09:50:00,
2013-03-17 05:00:00,58.3,57.2,29.99,South,181,2.0,7.0,96,0.00,,,0.00,WeatherTracker,2013-03-17 10:00:00,
2013-03-17 05:05:00,58.3,57.2,29.99,South,188,1.0,5.0,96,0.00,,,0.00,WeatherTracker,2013-03-17 10:05:00,
2013-03-17 05:15:00,58.3,57.2,29.99,South,188,1.0,3.0,96,0.00,,,0.00,WeatherTracker,2013-03-17 10:15:00,
2013-03-17 05:20:00,58.4,57.3,29.99,SSE,156,1.0,5.0,96,0.00,,,0.00,WeatherTracker,2013-03-17 10:20:00,
2013-03-17 05:30:00,58.3,57.2,30.00,SW,215,2.0,5.0,96,0.00,,,0.00,WeatherTracker,2013-03-17 10:30:00,
2013-03-17 05:35:00,58.2,57.1,30.00,SW,215,3.0,5.0,96,0.00,,,0.00,WeatherTracker,2013-03-17 10:35:00,
2013-03-17 05:40:00,58.2,57.1,30.00,South,175,0.0,4.0,96,0.00,,,0.00,WeatherTracker,2013-03-17 10:40:00,
2013-03-17 05:45:00,58.1,57.0,30.00,South,189,1.0,5.0,96,0.00,,,0.00,WeatherTracker,2013-03-17 10:45:00,
2013-03-17 05:55:00,57.9,56.8,30.00,South,169,5.0,5.0,96,0.00,,,0.00,WeatherTracker,2013-03-17 10:55:00,
2013-03-17 06:05:00,57.6,56.5,30.00,SSW,201,2.0,7.0,96,0.00,,,0.00,WeatherTracker,2013-03-17 11:05:00,
2013-03-17 06:15:00,57.5,56.4,30.00,South,172,4.0,5.0,96,0.00,,,0.00,WeatherTracker,2013-03-17 11:15:00,
2013-03-17 06:20:00,57.3,56.2,30.00,South,173,1.0,5.0,96,0.00,,,0.00,WeatherTracker,2013-03-17 11:20:00,
2013-03-17 06:25:00,57.3,56.2,30.00,SE,141,0.0,6.0,96,0.00,,,0.00,WeatherTracker,2013-03-17 11:25:00,
2013-03-17 06:30:00,57.2,56.1,30.00,South,172,4.0,6.0,96,0.00,,,0.00,WeatherTracker,2013-03-17 11:30:00,
2013-03-17 06:35:00,57.2,56.1,30.00,South,185,1.0,6.0,96,0.00,,,0.00,WeatherTracker,2013-03-17 11:35:00,
2013-03-17 06:40:00,57.1,56.0,30.00,South,181,0.0,6.0,96,0.00,,,0.00,WeatherTracker,2013-03-17 11:40:00,
2013-03-17 06:45:00,57.1,56.0,30.01,South,181,1.0,5.0,96,0.00,,,0.00,WeatherTracker,2013-03-17 11:45:00,
2013-03-17 06:55:00,57.2,56.1,30.01,South,181,2.0,4.0,96,0.00,,,0.00,WeatherTracker,2013-03-17 11:55:00,
2013-03-17 07:05:00,57.2,56.4,30.02,South,175,0.0,6.0,97,0.00,,,0.00,WeatherTracker,2013-03-17 12:05:00,
2013-03-17 07:10:00,57.3,56.5,30.02,South,175,2.0,6.0,97,0.00,,,0.00,WeatherTracker,2013-03-17 12:10:00,
2013-03-17 07:20:00,57.3,56.5,30.02,SSE,156,1.0,5.0,97,0.00,,,0.00,WeatherTracker,2013-03-17 12:20:00,
2013-03-17 07:30:00,57.3,56.5,30.02,SSW,201,5.0,5.0,97,0.00,,,0.00,WeatherTracker,2013-03-17 12:30:00,
2013-03-17 07:40:00,57.6,56.8,30.02,SSW,194,2.0,5.0,97,0.00,,,0.00,WeatherTracker,2013-03-17 12:40:00,
2013-03-17 07:50:00,57.7,56.9,30.02,South,173,1.0,4.0,97,0.00,,,0.00,WeatherTracker,2013-03-17 12:50:00,
2013-03-17 07:55:00,57.7,56.9,30.02,South,169,0.0,4.0,97,0.00,,,0.00,WeatherTracker,2013-03-17 12:55:00,
2013-03-17 08:00:00,57.8,57.0,30.02,SSE,163,2.0,4.0,97,0.00,,,0.00,WeatherTracker,2013-03-17 13:00:00,
2013-03-17 08:05:00,57.9,57.1,30.03,South,175,1.0,5.0,97,0.00,,,0.00,WeatherTracker,2013-03-17 13:05:00,
2013-03-17 08:10:00,58.1,57.3,30.03,SSE,163,1.0,5.0,97,0.00,,,0.00,WeatherTracker,2013-03-17 13:10:00,
2013-03-17 08:15:00,58.3,57.5,30.03,South,177,5.0,5.0,97,0.00,,,0.00,WeatherTracker,2013-03-17 13:15:00,
2013-03-17 08:25:00,58.8,57.9,30.03,South,184,2.0,5.0,97,0.00,,,0.00,WeatherTracker,2013-03-17 13:25:00,
2013-03-17 08:30:00,58.9,58.0,30.03,South,185,3.0,5.0,97,0.00,,,0.00,WeatherTracker,2013-03-17 13:30:00,
2013-03-17 08:35:00,59.2,58.3,30.03,South,185,2.0,5.0,97,0.00,,,0.00,WeatherTracker,2013-03-17 13:35:00,
2013-03-17 08:45:00,59.4,58.5,30.02,South,176,2.0,5.0,97,0.00,,,0.00,WeatherTracker,2013-03-17 13:45:00,
2013-03-17 08:50:00,59.8,58.9,30.02,South,176,0.0,4.0,97,0.00,,,0.00,WeatherTracker,2013-03-17 13:50:00,
2013-03-17 08:55:00,60.0,59.1,30.03,SSE,161,0.0,4.0,97,0.00,,,0.00,WeatherTracker,2013-03-17 13:55:00,
2013-03-17 09:00:00,60.0,59.1,30.03,SSE,162,2.0,5.0,97,0.00,,,0.00,WeatherTracker,2013-03-17 14:00:00,
2013-03-17 09:05:00,60.3,59.4,30.03,SSE,162,1.0,5.0,97,0.00,,,0.00,WeatherTracker,2013-03-17 14:05:00,
2013-03-17 09:15:00,60.9,60.0,30.03,SSW,205,0.0,4.0,97,0.00,,,0.00,WeatherTracker,2013-03-17 14:15:00,
2013-03-17 09:25:00,61.2,60.3,30.03,South,180,2.0,4.0,97,0.00,,,0.00,WeatherTracker,2013-03-17 14:25:00,
2013-03-17 09:30:00,61.5,60.6,30.03,SSE,147,2.0,5.0,97,0.00,,,0.00,WeatherTracker,2013-03-17 14:30:00,
2013-03-17 09:35:00,62.0,61.1,30.03,SSE,147,1.0,5.0,97,0.00,,,0.00,WeatherTracker,2013-03-17 14:35:00,
2013-03-17 09:40:00,62.7,61.8,30.03,ENE,76,0.0,4.0,97,0.00,,,0.00,WeatherTracker,2013-03-17 14:40:00,
2013-03-17 09:50:00,65.2,63.4,30.03,ESE,116,1.0,5.0,94,0.00,,,0.00,WeatherTracker,2013-03-17 14:50:00,
2013-03-17 10:00:00,66.7,63.0,30.03,South,181,3.0,7.0,88,0.00,,,0.00,WeatherTracker,2013-03-17 15:00:00,
2013-03-17 10:05:00,66.8,62.1,30.04,South,186,4.0,9.0,85,0.00,,,0.00,WeatherTracker,2013-03-17 15:05:00,
2013-03-17 10:15:00,67.4,61.7,30.04,SW,219,3.0,9.0,82,0.00,,,0.00,WeatherTracker,2013-03-17 15:15:00,
2013-03-17 10:25:00,67.0,61.7,30.04,SSW,204,5.0,8.0,83,0.00,,,0.00,WeatherTracker,2013-03-17 15:25:00,
2013-03-17 10:30:00,67.5,61.8,30.04,SSW,192,2.0,9.0,82,0.00,,,0.00,WeatherTracker,2013-03-17 15:30:00,
2013-03-17 10:40:00,68.1,61.3,30.03,South,181,2.0,8.0,79,0.00,,,0.00,WeatherTracker,2013-03-17 15:40:00,
2013-03-17 10:45:00,68.0,61.6,30.03,SE,138,2.0,8.0,80,0.00,,,0.00,WeatherTracker,2013-03-17 15:45:00,
2013-03-17 10:50:00,68.1,61.3,30.03,ESE,116,0.0,7.0,79,0.00,,,0.00,WeatherTracker,2013-03-17 15:50:00,
2013-03-17 11:00:00,68.0,60.9,30.04,South,187,4.0,10.0,78,0.00,,,0.00,WeatherTracker,2013-03-17 16:00:00,
2013-03-17 11:10:00,67.6,60.8,30.04,South,190,6.0,10.0,79,0.00,,,0.00,WeatherTracker,2013-03-17 16:10:00,
2013-03-17 11:20:00,67.1,60.4,30.03,SSW,200,7.0,7.0,79,0.00,,,0.00,WeatherTracker,2013-03-17 16:20:00,
2013-03-17 11:25:00,67.0,60.6,30.03,SE,139,0.0,7.0,80,0.00,,,0.00,WeatherTracker,2013-03-17 16:25:00,
2013-03-17 11:30:00,67.5,61.1,30.03,SSW,202,5.0,7.0,80,0.00,,,0.00,WeatherTracker,2013-03-17 16:30:00,
2013-03-17 11:40:00,67.6,60.5,30.03,SSW,197,5.0,8.0,78,0.00,,,0.00,WeatherTracker,2013-03-17 16:40:00,
2013-03-17 11:50:00,68.1,60.2,30.03,South,181,4.0,9.0,76,0.00,,,0.00,WeatherTracker,2013-03-17 16:50:00,
2013-03-17 11:55:00,68.3,60.8,30.03,WSW,243,1.0,7.0,77,0.00,,,0.00,WeatherTracker,2013-03-17 16:55:00,
2013-03-17 12:00:00,68.6,61.1,30.02,SSE,163,5.0,7.0,77,0.00,,,0.00,WeatherTracker,2013-03-17 17:00:00,
2013-03-17 12:10:00,68.6,60.0,30.02,South,184,6.0,8.0,74,0.00,,,0.00,WeatherTracker,2013-03-17 17:10:00,
2013-03-17 12:20:00,68.3,60.4,30.02,SW,214,4.0,7.0,76,0.00,,,0.00,WeatherTracker,2013-03-17 17:20:00,
2013-03-17 12:25:00,68.1,60.2,30.01,SSW,211,4.0,8.0,76,0.00,,,0.00,WeatherTracker,2013-03-17 17:25:00,
2013-03-17 12:30:00,67.9,60.4,30.01,SSW,196,0.0,8.0,77,0.00,,,0.00,WeatherTracker,2013-03-17 17:30:00,
2013-03-17 12:35:00,67.7,60.6,30.01,South,190,3.0,8.0,78,0.00,,,0.00,WeatherTracker,2013-03-17 17:35:00,
2013-03-17 12:45:00,67.6,60.8,30.01,SE,145,7.0,7.0,79,0.00,,,0.00,WeatherTracker,2013-03-17 17:45:00,
2013-03-17 12:55:00,67.6,61.2,30.00,SSE,163,2.0,8.0,80,0.00,,,0.00,WeatherTracker,2013-03-17 17:55:00,
2013-03-17 13:05:00,68.0,61.2,30.00,SSW,196,5.0,8.0,79,0.00,,,0.00,WeatherTracker,2013-03-17 18:05:00,
2013-03-17 13:10:00,68.1,61.3,30.00,South,181,3.0,8.0,79,0.00,,,0.00,WeatherTracker,2013-03-17 18:10:00,
2013-03-17 13:20:00,68.0,61.2,29.98,SSW,196,3.0,9.0,79,0.00,,,0.00,WeatherTracker,2013-03-17 18:20:00,
2013-03-17 13:30:00,68.2,61.4,29.98,SSW,211,6.0,9.0,79,0.00,,,0.00,WeatherTracker,2013-03-17 18:30:00,
2013-03-17 13:40:00,68.6,61.8,29.97,SE,138,4.0,9.0,79,0.00,,,0.00,WeatherTracker,2013-03-17 18:40:00,
2013-03-17 13:45:00,68.7,61.6,29.97,SSW,205,1.0,9.0,78,0.00,,,0.00,WeatherTracker,2013-03-17 18:45:00,
2013-03-17 13:55:00,69.0,61.8,29.97,SSE,155,5.0,8.0,78,0.00,,,0.00,WeatherTracker,2013-03-17 18:55:00,
2013-03-17 14:00:00,69.0,61.8,29.96,South,180,2.0,11.0,78,0.00,,,0.00,WeatherTracker,2013-03-17 19:00:00,
2013-03-17 14:05:00,68.9,61.4,29.96,South,185,5.0,11.0,77,0.00,,,0.00,WeatherTracker,2013-03-17 19:05:00,
2013-03-17 14:15:00,69.2,62.0,29.96,SSW,211,4.0,9.0,78,0.00,,,0.00,WeatherTracker,2013-03-17 19:15:00,
2013-03-17 14:25:00,70.3,62.7,29.96,WSW,245,5.0,10.0,77,0.00,,,0.00,WeatherTracker,2013-03-17 19:25:00,
2013-03-17 14:35:00,69.6,61.7,29.95,SSE,155,4.0,13.0,76,0.00,,,0.00,WeatherTracker,2013-03-17 19:35:00,
2013-03-17 14:40:00,69.5,62.0,29.95,South,191,3.0,9.0,77,0.00,,,0.00,WeatherTracker,2013-03-17 19:40:00,
2013-03-17 14:45:00,69.7,62.2,29.95,SSW,205,6.0,8.0,77,0.00,,,0.00,WeatherTracker,2013-03-17 19:45:00,
2013-03-17 14:55:00,69.9,62.0,29.95,SSE,163,5.0,10.0,76,0.00,,,0.00,WeatherTracker,2013-03-17 19:55:00,
2013-03-17 15:00:00,69.8,62.3,29.95,South,172,2.0,10.0,77,0.00,,,0.00,WeatherTracker,2013-03-17 20:00:00,
2013-03-17 15:10:00,69.8,62.3,29.94,SW,214,6.0,9.0,77,0.00,,,0.00,WeatherTracker,2013-03-17 20:10:00,
2013-03-17 15:20:00,69.6,62.1,29.94,SSE,163,5.0,10.0,77,0.00,,,0.00,WeatherTracker,2013-03-17 20:20:00,
2013-03-17 15:25:00,69.6,62.1,29.94,SSW,212,8.0,9.0,77,0.00,,,0.00,WeatherTracker,2013-03-17 20:25:00,
2013-03-17 15:30:00,69.7,62.2,29.94,SW,218,4.0,13.0,77,0.00,,,0.00,WeatherTracker,2013-03-17 20:30:00,
2013-03-17 15:35:00,69.9,62.4,29.94,SSE,165,8.0,13.0,77,0.00,,,0.00,WeatherTracker,2013-03-17 20:35:00,
2013-03-17 15:45:00,69.5,62.0,29.94,SE,125,2.0,11.0,77,0.00,,,0.00,WeatherTracker,2013-03-17 20:45:00,
2013-03-17 15:50:00,69.3,62.1,29.94,SSE,152,0.0,11.0,78,0.00,,,0.00,WeatherTracker,2013-03-17 20:50:00,
2013-03-17 15:55:00,69.1,61.9,29.94,South,191,5.0,11.0,78,0.00,,,0.00,WeatherTracker,2013-03-17 20:55:00,
2013-03-17 16:00:00,68.9,61.7,29.94,South,179,5.0,11.0,78,0.00,,,0.00,WeatherTracker,2013-03-17 21:00:00,
2013-03-17 16:05:00,68.8,62.0,29.94,South,173,5.0,11.0,79,0.00,,,0.00,WeatherTracker,2013-03-17 21:05:00,
2013-03-17 16:10:00,68.8,62.0,29.94,SSE,165,7.0,9.0,79,0.00,,,0.00,WeatherTracker,2013-03-17 21:10:00,
2013-03-17 16:15:00,68.9,62.5,29.94,SSW,205,4.0,10.0,80,0.00,,,0.00,WeatherTracker,2013-03-17 21:15:00,
2013-03-17 16:25:00,69.5,62.7,29.93,South,181,5.0,10.0,79,0.00,,,0.00,WeatherTracker,2013-03-17 21:25:00,
2013-03-17 16:30:00,69.4,62.2,29.93,SSW,196,3.0,12.0,78,0.00,,,0.00,WeatherTracker,2013-03-17 21:30:00,
2013-03-17 16:35:00,69.3,62.1,29.93,South,182,6.0,12.0,78,0.00,,,0.00,WeatherTracker,2013-03-17 21:35:00,
2013-03-17 16:40:00,69.1,61.9,29.93,SW,218,6.0,11.0,78,0.00,,,0.00,WeatherTracker,2013-03-17 21:40:00,
2013-03-17 16:45:00,68.9,62.1,29.93,SSW,205,4.0,11.0,79,0.00,,,0.00,WeatherTracker,2013-03-17 21:45:00,
2013-03-17 16:50:00,68.8,62.0,29.93,SW,232,5.0,10.0,79,0.00,,,0.00,WeatherTracker,2013-03-17 21:50:00,
2013-03-17 17:00:00,68.7,62.3,29.93,SSW,192,6.0,9.0,80,0.00,,,0.00,WeatherTracker,2013-03-17 22:00:00,
2013-03-17 17:05:00,68.6,62.2,29.93,South,171,5.0,10.0,80,0.00,,,0.00,WeatherTracker,2013-03-17 22:05:00,
2013-03-17 17:15:00,68.5,62.1,29.93,SSW,196,5.0,8.0,80,0.00,,,0.00,WeatherTracker,2013-03-17 22:15:00,
2013-03-17 17:25:00,68.4,62.0,29.93,South,177,5.0,7.0,80,0.00,,,0.00,WeatherTracker,2013-03-17 22:25:00,
2013-03-17 17:30:00,68.4,62.0,29.93,SSE,148,2.0,10.0,80,0.00,,,0.00,WeatherTracker,2013-03-17 22:30:00,
2013-03-17 17:40:00,68.3,62.2,29.93,SSW,204,2.0,10.0,81,0.00,,,0.00,WeatherTracker,2013-03-17 22:40:00,
2013-03-17 17:45:00,68.3,62.2,29.93,ESE,120,2.0,9.0,81,0.00,,,0.00,WeatherTracker,2013-03-17 22:45:00,
2013-03-17 17:55:00,68.0,61.9,29.93,South,174,0.0,13.0,81,0.00,,,0.00,WeatherTracker,2013-03-17 22:55:00,
2013-03-17 18:05:00,67.8,62.1,29.93,South,178,2.0,11.0,82,0.00,,,0.00,WeatherTracker,2013-03-17 23:05:00,
2013-03-17 18:10:00,67.6,61.9,29.93,SSW,198,7.0,11.0,82,0.00,,,0.00,WeatherTracker,2013-03-17 23:10:00,
2013-03-17 18:20:00,67.2,61.9,29.94,South,180,3.0,8.0,83,0.00,,,0.00,WeatherTracker,2013-03-17 23:20:00,
2013-03-17 18:25:00,67.0,62.0,29.94,South,188,2.0,8.0,84,0.00,,,0.00,WeatherTracker,2013-03-17 23:25:00,
2013-03-17 18:35:00,66.7,62.0,29.94,South,175,1.0,9.0,85,0.00,,,0.00,WeatherTracker,2013-03-17 23:35:00,
2013-03-17 18:40:00,66.5,62.2,29.95,SSE,159,2.0,10.0,86,0.00,,,0.00,WeatherTracker,2013-03-17 23:40:00,
2013-03-17 18:50:00,66.3,62.0,29.94,South,180,5.0,7.0,86,0.00,,,0.00,WeatherTracker,2013-03-17 23:50:00,
2013-03-17 19:00:00,65.9,61.9,29.94,South,181,3.0,8.0,87,0.00,,,0.00,WeatherTracker,2013-03-18 00:00:00,
2013-03-17 19:05:00,65.7,62.0,29.94,SSW,200,3.0,8.0,88,0.00,,,0.00,WeatherTracker,2013-03-18 00:05:00,
2013-03-17 19:10:00,65.6,61.9,29.94,South,175,2.0,8.0,88,0.00,,,0.00,WeatherTracker,2013-03-18 00:10:00,
2013-03-17 19:20:00,65.3,61.6,29.94,South,175,6.0,7.0,88,0.00,,,0.00,WeatherTracker,2013-03-18 00:20:00,
2013-03-17 19:30:00,65.0,61.7,29.94,SSW,193,2.0,7.0,89,0.00,,,0.00,WeatherTracker,2013-03-18 00:30:00,
2013-03-17 19:35:00,64.9,61.6,29.94,South,180,2.0,8.0,89,0.00,,,0.00,WeatherTracker,2013-03-18 00:35:00,
2013-03-17 19:40:00,64.8,61.8,29.94,South,178,4.0,8.0,90,0.00,,,0.00,WeatherTracker,2013-03-18 00:40:00,
2013-03-17 19:45:00,64.7,61.7,29.94,South,169,4.0,7.0,90,0.00,,,0.00,WeatherTracker,2013-03-18 00:45:00,
2013-03-17 19:50:00,64.6,61.6,29.94,SSE,159,5.0,9.0,90,0.00,,,0.00,WeatherTracker,2013-03-18 00:50:00,
2013-03-17 19:55:00,64.5,61.5,29.94,SE,146,2.0,9.0,90,0.00,,,0.00,WeatherTracker,2013-03-18 00:55:00,
2013-03-17 20:00:00,64.3,61.6,29.94,SE,136,4.0,8.0,91,0.00,,,0.00,WeatherTracker,2013-03-18 01:00:00,
2013-03-17 20:05:00,64.2,61.5,29.94,SE,146,2.0,8.0,91,0.00,,,0.00,WeatherTracker,2013-03-18 01:05:00,
2013-03-17 20:15:00,63.9,61.2,29.94,SE,126,1.0,6.0,91,0.00,,,0.00,WeatherTracker,2013-03-18 01:15:00,
2013-03-17 20:25:00,63.6,61.2,29.94,South,172,1.0,6.0,92,0.00,,,0.00,WeatherTracker,2013-03-18 01:25:00,
2013-03-17 20:35:00,63.4,61.0,29.94,South,188,2.0,7.0,92,0.00,,,0.00,WeatherTracker,2013-03-18 01:35:00,
2013-03-17 20:40:00,63.2,60.8,29.94,SSE,159,1.0,7.0,92,0.00,,,0.00,WeatherTracker,2013-03-18 01:40:00,
2013-03-17 20:45:00,63.1,60.7,29.94,South,170,1.0,7.0,92,0.00,,,0.00,WeatherTracker,2013-03-18 01:45:00,
2013-03-17 20:55:00,62.9,60.8,29.94,South,176,4.0,7.0,93,0.00,,,0.00,WeatherTracker,2013-03-18 01:55:00,
2013-03-17 21:00:00,62.8,60.7,29.94,SSE,163,5.0,7.0,93,0.00,,,0.00,WeatherTracker,2013-03-18 02:00:00,
2013-03-17 21:05:00,62.7,60.6,29.94,South,178,2.0,7.0,93,0.00,,,0.00,WeatherTracker,2013-03-18 02:05:00,
2013-03-17 21:10:00,62.5,60.4,29.95,SSW,192,2.0,7.0,93,0.00,,,0.00,WeatherTracker,2013-03-18 02:10:00,
2013-03-17 21:20:00,62.3,60.2,29.95,South,169,2.0,8.0,93,0.00,,,0.00,WeatherTracker,2013-03-18 02:20:00,
2013-03-17 21:25:00,62.1,60.0,29.95,SSW,199,3.0,8.0,93,0.00,,,0.00,WeatherTracker,2013-03-18 02:25:00,
2013-03-17 21:35:00,61.8,59.8,29.95,South,172,4.0,5.0,93,0.00,,,0.00,WeatherTracker,2013-03-18 02:35:00,
2013-03-17 21:45:00,61.5,59.8,29.95,South,169,2.0,6.0,94,0.00,,,0.00,WeatherTracker,2013-03-18 02:45:00,
2013-03-17 21:55:00,61.2,59.5,29.95,SSE,164,0.0,6.0,94,0.00,,,0.00,WeatherTracker,2013-03-18 02:55:00,
2013-03-17 22:05:00,61.1,59.4,29.94,SSE,158,1.0,8.0,94,0.00,,,0.00,WeatherTracker,2013-03-18 03:05:00,
2013-03-17 22:15:00,60.8,59.1,29.94,SSE,160,5.0,7.0,94,0.00,,,0.00,WeatherTracker,2013-03-18 03:15:00,
2013-03-17 22:20:00,60.7,59.0,29.94,South,190,2.0,7.0,94,0.00,,,0.00,WeatherTracker,2013-03-18 03:20:00,
2013-03-17 22:25:00,60.6,58.9,29.94,South,171,4.0,5.0,94,0.00,,,0.00,WeatherTracker,2013-03-18 03:25:00,
2013-03-17 22:30:00,60.5,58.8,29.94,SSE,165,0.0,6.0,94,0.00,,,0.00,WeatherTracker,2013-03-18 03:30:00,
2013-03-17 22:40:00,60.2,58.8,29.95,SSW,196,5.0,7.0,95,0.00,,,0.00,WeatherTracker,2013-03-18 03:40:00,
2013-03-17 22:50:00,60.0,58.6,29.95,South,184,2.0,8.0,95,0.00,,,0.00,WeatherTracker,2013-03-18 03:50:00,
2013-03-17 22:55:00,60.0,58.6,29.95,SSE,153,1.0,6.0,95,0.00,,,0.00,WeatherTracker,2013-03-18 03:55:00,
2013-03-17 23:00:00,60.0,58.6,29.95,SSE,163,6.0,8.0,95,0.00,,,0.00,WeatherTracker,2013-03-18 04:00:00,
2013-03-17 23:05:00,60.0,58.6,29.95,SSE,155,1.0,8.0,95,0.00,,,0.00,WeatherTracker,2013-03-18 04:05:00,
2013-03-17 23:10:00,60.1,58.7,29.95,South,188,5.0,7.0,95,0.00,,,0.00,WeatherTracker,2013-03-18 04:10:00,
2013-03-17 23:15:00,60.2,58.8,29.95,South,173,5.0,11.0,95,0.00,,,0.00,WeatherTracker,2013-03-18 04:15:00,
2013-03-17 23:20:00,60.2,58.8,29.95,SSW,196,5.0,11.0,95,0.00,,,0.00,WeatherTracker,2013-03-18 04:20:00,
2013-03-17 23:25:00,60.2,58.8,29.95,South,182,6.0,11.0,95,0.00,,,0.00,WeatherTracker,2013-03-18 04:25:00,
2013-03-17 23:30:00,60.2,58.8,29.95,SSE,157,1.0,11.0,95,0.00,,,0.00,WeatherTracker,2013-03-18 04:30:00,
2013-03-17 23:40:00,60.2,58.8,29.95,SSE,166,5.0,13.0,95,0.00,,,0.00,WeatherTracker,2013-03-18 04:40:00,
2013-03-17 23:45:00,60.2,58.8,29.95,South,178,8.0,13.0,95,0.00,,,0.00,WeatherTracker,2013-03-18 04:45:00,
2013-03-17 23:50:00,60.1,58.7,29.95,SE,137,6.0,11.0,95,0.00,,,0.00,WeatherTracker,2013-03-18 04:50:00,
2013-03-17 23:55:00,60.1,58.7,29.95,SE,142,7.0,11.0,95,0.00,,,0.00,WeatherTracker,2013-03-18 04:55:00,